Weather History for Ellensburg, WA

Change the Weather History Date:

Wednesday, February 13, 2013

  Actual Average (KYKM) Record (KYKM)
Temperature  
Mean Temperature 44 °F 36 °F  
Max Temperature 51 °F 46 °F 63 °F (1971)
Min Temperature 37 °F 26 °F -2 °F (1949)
Degree Days  
Heating Degree Days 21 29  
Month to date heating degree days 394  
Since 1 July heating degree days 4112  
Cooling Degree Days 0 0  
Month to date cooling degree days 0  
Year to date cooling degree days 0  
Moisture  
Dew Point 30 °F    
Average Humidity 58    
Maximum Humidity 73    
Minimum Humidity 43    
Precipitation  
Precipitation 0.00 in 0.03 in 0.21 in (1962)
Month to date precipitation 0.38  
Year to date precipitation 1.52  
Snow  
Snow 0.00 in 0.10 in 3.10 in (1980)
Month to date snowfall 1.4  
Year to date snowfall 6.7  
Since 1 July snowfall 19.7  
Snow Depth -    
Sea Level Pressure  
Sea Level Pressure 30.29 in    
Wind  
Wind Speed 19 mph (NW)    
Max Wind Speed 33 mph    
Max Gust Speed 43 mph    
Visibility 10 miles    
Events      
T = Trace of Precipitation, MM = Missing Value Source: NWS Daily Summary

Daily Weather History Graph

Daily Weather History Graph

Search for Another Location

Airport:

Trip Planner

Search our weather history database for the weather conditions in past years. The results will help you decide how hot, cold, wet, or windy it might be!

Date:

Astronomy

Feb. 13, 2013 Rise Set
Actual Time 7:09 AM PST 5:24 PM PST
Civil Twilight 6:37 AM PST 5:55 PM PST
Nautical Twilight 6:02 AM PST 6:31 PM PST
Astronomical Twilight 5:26 AM PST 7:06 PM PST
Moon 8:23 AM PST (2/13) 9:52 PM PST (2/13)
Length of Visible Light 11h 17m
Length of Day
10h 14m
Waxing Crescent, 14% of the Moon is Illuminated
Feb 13
Waxing Crescent
Feb 17
First Quarter
Feb 25
Full
Mar 4
Last Quarter
Mar 11
New

Hourly Weather History & Observations

Time (PST) Temp. Windchill Dew Point Humidity Pressure Visibility Wind Dir Wind Speed Gust Speed Precip Events Conditions
12:53 AM 46.0 °F 39.9 °F 34.0 °F 63% 30.19 in 10.0 mi NW 13.8 mph 21.9 mph N/A   Overcast
1:53 AM 46.0 °F 38.5 °F 34.0 °F 63% 30.20 in 10.0 mi WNW 19.6 mph 29.9 mph N/A   Scattered Clouds
2:53 AM 45.0 °F 37.4 °F 34.0 °F 65% 30.19 in 10.0 mi WNW 18.4 mph - N/A   Clear
3:53 AM 45.0 °F 37.9 °F 32.0 °F 60% 30.19 in 10.0 mi WNW 16.1 mph - N/A   Clear
4:53 AM 45.0 °F 37.6 °F 32.0 °F 60% 30.21 in 10.0 mi NW 17.3 mph 24.2 mph N/A   Clear
5:53 AM 44.1 °F 36.8 °F 32.0 °F 63% 30.22 in 10.0 mi WNW 16.1 mph 24.2 mph N/A   Clear
6:53 AM 45.0 °F 38.9 °F 30.9 °F 58% 30.25 in 10.0 mi WNW 12.7 mph - N/A   Mostly Cloudy
7:53 AM 45.0 °F 36.6 °F 30.0 °F 56% 30.25 in 10.0 mi WNW 21.9 mph - N/A   Clear
8:53 AM 46.9 °F - 30.0 °F 52% 30.26 in 10.0 mi NW 26.5 mph 33.4 mph N/A   Clear
9:53 AM 48.0 °F - 28.9 °F 48% 30.28 in 10.0 mi NW 28.8 mph 34.5 mph N/A   Clear
10:53 AM 48.9 °F - 28.9 °F 46% 30.29 in 10.0 mi NW 33.4 mph 42.6 mph N/A   Clear
11:53 AM 46.9 °F - 28.0 °F 48% 30.29 in 10.0 mi NW 26.5 mph 33.4 mph N/A   Clear
12:53 PM 48.9 °F - 28.0 °F 44% 30.28 in 10.0 mi WNW 24.2 mph 32.2 mph N/A   Clear
1:53 PM 51.1 °F - 28.9 °F 43% 30.27 in 10.0 mi WNW 31.1 mph 39.1 mph N/A   Clear
2:53 PM 50.0 °F - 28.9 °F 44% 30.29 in 10.0 mi WNW 26.5 mph 38.0 mph N/A   Clear
3:53 PM 48.0 °F - 28.9 °F 48% 30.30 in 10.0 mi WNW 29.9 mph 36.8 mph N/A   Clear
4:53 PM 45.0 °F 37.1 °F 28.9 °F 53% 30.32 in 10.0 mi WNW 19.6 mph 26.5 mph N/A   Clear
5:53 PM 42.1 °F 32.8 °F 30.0 °F 62% 30.34 in 10.0 mi NW 21.9 mph 27.6 mph N/A   Clear
6:53 PM 39.9 °F 33.4 °F 30.0 °F 68% 30.36 in 10.0 mi NW 10.4 mph - N/A   Clear
7:53 PM 39.9 °F 31.1 °F 30.0 °F 68% 30.37 in 10.0 mi WNW 17.3 mph - N/A   Clear
8:53 PM 37.9 °F 29.6 °F 30.0 °F 73% 30.37 in 10.0 mi NW 13.8 mph - N/A   Clear
9:53 PM 39.0 °F 31.0 °F 30.0 °F 70% 30.38 in 10.0 mi WNW 13.8 mph - N/A   Clear
10:53 PM 39.9 °F 33.9 °F 30.0 °F 68% 30.39 in 10.0 mi NW 9.2 mph - N/A   Clear
11:53 PM 39.9 °F 31.1 °F 28.9 °F 65% 30.40 in 10.0 mi NW 17.3 mph - N/A   Clear